[[{"header":{"parameterUnit":"m.s-1","parameterCategory":2,"la1":30.2991,"la2":30.254,"lo1":-89.0895,"lo2":-89.0444,"dy":0.0017,"dx":0.0017,"nx":28,"ny":28,"refTime":"2024-12-17T09:00:00:Z","depth":"0","parameterNumber":2,"parameterNumberName":"U-component_of_CURRENTS"},"data":[0,0,0,0,0,0,0,0,0,0,0,0,0,0,0,0,0,0,0,0,0,0,0,0,0,0,0,0,0,0,0,0,0,0,0,0,0,0,0,0,0,0,0,0,0,0,0,0,0,0,0,0,0,0,0,0,0,0,0.4942,0.4942,0,0.4933,0.4932,0.4931,0.4862,0.4861,0.4861,0.486,0.4741,0.4738,0.4736,0,0,0,0,0,0,0,0,0,0,0,0,0,0.4872,0.4873,0.4942,0.4942,0.4943,0.4933,0.4932,0.4931,0.4862,0.4861,0.4861,0.486,0.4741,0.4738,0.4735,0,0,0,0,0,0,0,0,0,0,0,0,0,0.4877,0.4873,0.4941,0.4915,0.4914,0.4934,0.4932,0.4931,0.4863,0.4861,0.486,0.4859,0.4742,0.4739,0.4735,0.4735,0,0,0.4724,0.4722,0,0,0,0,0,0,0,0,0.4877,0.4878,0.4918,0.4917,0.4916,0.4907,0.4865,0.4863,0.4863,0.4871,0.486,0.4859,0.4793,0.4785,0.4773,0.4729,0.4724,0.4723,0.4721,0.472,0.4718,0,0,0,0,0,0,0,0.4877,0.4879,0.4928,0.492,0.4918,0.4896,0.4894,0.4863,0.4829,0.487,0.4868,0.4884,0.479,0.4777,0.477,0.4722,0.4723,0.472,0.4718,0.4716,0.4665,0.4665,0,0,0,0,0,0,0.4902,0.4879,0.4928,0.4928,0.4905,0.4899,0.4897,0.4902,0.4831,0.4823,0.4885,0.4881,0.4784,0.4774,0.4765,0.4759,0.472,0.4716,0.4714,0.4664,0.4665,0.4666,0,0,0,0,0,0,0.49,0.4906,0.4929,0.4912,0.4915,0.4903,0.4909,0.4903,0.4893,0.4846,0.4833,0.4882,0.4783,0.477,0.4734,0.4754,0.4714,0.4711,0.4663,0.4664,0.4665,0.4747,0,0,0,0,0,0,0.4898,0.4905,0.4909,0.4914,0.4917,0.4948,0.4911,0.4904,0.4909,0.4904,0.4839,0.4827,0.4781,0.474,0.4731,0.4748,0.4708,0.4662,0.4663,0.4665,0.4743,0.4751,0.4758,0,0,0,0,0,0.4895,0.4902,0.4909,0.4916,0.4926,0.495,0.4948,0.4929,0.4911,0.4912,0.4862,0.4829,0.4744,0.4738,0.4726,0.4743,0.4661,0.4663,0.4665,0.474,0.475,0.4757,0,0,0,0,0,0,0.4842,0.4897,0.4904,0.4919,0.4943,0.4942,0.4939,0.494,0.4904,0.489,0.4833,0.4817,0.4801,0.476,0.4755,0.4734,0.47,0.47,0.4761,0.477,0.4777,0.4771,0.4705,0,0,0,0,0,0.4848,0.4869,0.4918,0.4917,0.4941,0.4945,0.4951,0.4951,0.4932,0.4915,0.4874,0.4829,0.4802,0.4775,0.4746,0.4725,0.4719,0.4731,0.4738,0.4745,0.4733,0.4752,0.476,0.4672,0.4672,0.4672,0,0,0.4818,0.4854,0.4859,0.491,0.4918,0.4939,0.4941,0.496,0.4952,0.4908,0.4865,0.4857,0.4806,0.4787,0.4776,0.4751,0.4773,0.4747,0.4753,0.4737,0.4755,0.4764,0.4771,0.4673,0.4673,0.4673,0,0,0.4769,0.4814,0.482,0.486,0.4911,0.4931,0.4947,0.497,0.4955,0.494,0.4913,0.4915,0.4852,0.4834,0.4811,0.484,0.4821,0.4837,0.4853,0.4874,0.4881,0.4887,0.4923,0.4932,0.4828,0.4829,0.4829,0,0.4725,0.4752,0.482,0.4844,0.4872,0.4931,0.4943,0.4946,0.4945,0.494,0.4929,0.4899,0.487,0.4859,0.487,0.4857,0.4868,0.4827,0.4884,0.489,0.4895,0.493,0.4939,0.4833,0.4832,0.4832,0.4832,0,0.4696,0.4721,0.4729,0.4785,0.4825,0.4851,0.4903,0.4925,0.4934,0.4935,0.4943,0.4929,0.491,0.4921,0.4895,0.4926,0.4927,0.4905,0.4866,0.4909,0.4943,0.4951,0.4839,0.4837,0.4836,0.4835,0,0,0.4568,0.4686,0.4681,0.4712,0.4809,0.4834,0.486,0.49,0.4906,0.4926,0.4934,0.4925,0.4952,0.4931,0.4937,0.4956,0.5025,0.4946,0.4945,0.4988,0.5088,0.4977,0.4974,0.5018,0.5019,0.502,0.511,0,0.4512,0.4551,0.4628,0.4651,0.4688,0.4782,0.4794,0.4843,0.4877,0.4905,0.4938,0.4949,0.4943,0.4967,0.4985,0.5023,0.5043,0.5004,0.5032,0.5033,0.4933,0.4977,0.4781,0.4832,0.5117,0.5118,0.5119,0,0.4451,0.4498,0.4523,0.4616,0.4637,0.4662,0.4741,0.476,0.4833,0.4863,0.4914,0.4954,0.5013,0.5002,0.507,0.5048,0.5065,0.5089,0.5092,0.4955,0.4933,0.4827,0.4835,0.474,0.513,0.5129,0.5128,0,0.4344,0.4418,0.444,0.4474,0.4586,0.4608,0.4661,0.4737,0.4772,0.4858,0.4916,0.4973,0.5024,0.5065,0.5128,0.5106,0.5206,0.5177,0.5091,0.5086,0.4901,0.4875,0.4814,0.5205,0.5205,0.5205,0.5205,0,0.4272,0.4282,0.4394,0.4409,0.4429,0.4533,0.4564,0.4625,0.4735,0.4775,0.4885,0.4944,0.5041,0.512,0.5154,0.5154,0.5224,0.5097,0.5093,0.4926,0.4902,0.4794,0.4764,0.5208,0.5207,0.5207,0.5206,0,0.4157,0.4225,0.4256,0.4358,0.4383,0.4397,0.4525,0.4548,0.467,0.4748,0.4795,0.4945,0.5031,0.5132,0.5213,0.5167,0.5054,0.5177,0.4985,0.4953,0.4716,0.4698,0.4454,0.4328,0.5073,0.507,0.5068,0,0.4103,0.4111,0.4198,0.4205,0.425,0.4304,0.4332,0.448,0.453,0.4729,0.4754,0.4906,0.4965,0.5069,0.5037,0.5072,0.4974,0.4886,0.4774,0.4671,0.4651,0.4495,0.4397,0.4595,0.459,0.4585,0.4581,0,0.4004,0.4035,0.4066,0.4085,0.4109,0.4157,0.4228,0.4278,0.4443,0.4525,0.4631,0.4719,0.4819,0.4749,0.4802,0.4795,0.464,0.4784,0.4722,0.4295,0.4075,0.3963,0.4604,0.454,0.4544,0.4547,0.4549,0.4551,0.3913,0.3911,0.3945,0.3954,0.3971,0.3992,0.3981,0.408,0.4145,0.4221,0.4395,0.4408,0.4495,0.4516,0.4496,0.4321,0.4317,0.4183,0.4187,0.4053,0.3842,0.4389,0.4281,0.4284,0.4286,0.4288,0.429,0,0.3791,0.381,0.3812,0.3805,0.3754,0.3831,0.3878,0.3841,0.3837,0.3938,0.3983,0.3991,0.3969,0.4035,0.3935,0.3764,0.3613,0.368,0.3441,0.3389,0.3924,0.3814,0.3542,0.3542,0.3542,0.3542,0.3542,0.3542,0.3726,0.3687,0.3699,0.3586,0.357,0.3471,0.3464,0.3438,0.3471,0.3399,0.3353,0.3411,0.361,0.3662,0.3512,0.3422,0.3189,0.3011,0.3049,0.348,0.3527,0.3573,0.3462,0.312,0.312,0.2353,0.2347,0.2343]},{"header":{"parameterUnit":"m.s-1","parameterCategory":2,"la1":30.2991,"la2":30.254,"lo1":-89.0895,"lo2":-89.0444,"dy":0.0017,"dx":0.0017,"nx":28,"ny":28,"refTime":"2024-12-17T09:00:00:Z","depth":"0","parameterNumber":3,"parameterNumberName":"V-component_of_CURRENTS"},"data":[0,0,0,0,0,0,0,0,0,0,0,0,0,0,0,0,0,0,0,0,0,0,0,0,0,0,0,0,0,0,0,0,0,0,0,0,0,0,0,0,0,0,0,0,0,0,0,0,0,0,0,0,0,0,0,0,0,0,-0.0342,-0.0343,0,-0.0365,-0.0365,-0.0365,-0.0362,-0.0362,-0.0362,-0.0362,-0.038,-0.0381,-0.0381,0,0,0,0,0,0,0,0,0,0,0,0,0,-0.0289,-0.029,-0.0342,-0.0343,-0.0343,-0.0365,-0.0365,-0.0365,-0.0362,-0.0362,-0.0362,-0.0362,-0.038,-0.0381,-0.0381,0,0,0,0,0,0,0,0,0,0,0,0,0,-0.0308,-0.029,-0.0342,-0.0348,-0.0349,-0.0365,-0.0365,-0.0365,-0.0362,-0.0362,-0.0362,-0.0362,-0.038,-0.0381,-0.0381,-0.0386,0,0,-0.0384,-0.0384,0,0,0,0,0,0,0,0,-0.0307,-0.031,-0.0346,-0.0347,-0.0349,-0.0364,-0.0353,-0.0373,-0.0362,-0.0353,-0.0362,-0.0362,-0.0377,-0.0378,-0.0377,-0.0387,-0.0388,-0.0384,-0.0384,-0.0384,-0.0385,0,0,0,0,0,0,0,-0.0306,-0.0309,-0.0347,-0.0347,-0.0348,-0.0347,-0.0349,-0.0356,-0.0362,-0.0354,-0.0355,-0.0363,-0.0377,-0.0376,-0.0377,-0.0388,-0.0384,-0.0384,-0.0385,-0.0385,-0.0384,-0.0383,0,0,0,0,0,0,-0.0311,-0.0308,-0.0347,-0.0348,-0.0332,-0.0348,-0.035,-0.0356,-0.0362,-0.0364,-0.0363,-0.0363,-0.0375,-0.0376,-0.0378,-0.0358,-0.0384,-0.0385,-0.0385,-0.0384,-0.0384,-0.0383,0,0,0,0,0,0,-0.031,-0.0314,-0.0346,-0.0332,-0.0336,-0.0349,-0.0355,-0.0357,-0.0358,-0.037,-0.0371,-0.0365,-0.0375,-0.0377,-0.037,-0.036,-0.0385,-0.0386,-0.0385,-0.0384,-0.0384,-0.0336,0,0,0,0,0,0,-0.0308,-0.0314,-0.0318,-0.0332,-0.0337,-0.0349,-0.0356,-0.0357,-0.0366,-0.0365,-0.0372,-0.0373,-0.0375,-0.0369,-0.0371,-0.0361,-0.0387,-0.0386,-0.0385,-0.0384,-0.0338,-0.0333,-0.0329,0,0,0,0,0,-0.0306,-0.0308,-0.0317,-0.0322,-0.0343,-0.0349,-0.035,-0.0357,-0.0366,-0.036,-0.0358,-0.0373,-0.0365,-0.0369,-0.0371,-0.0362,-0.0386,-0.0385,-0.0384,-0.034,-0.0334,-0.033,0,0,0,0,0,0,-0.0273,-0.0309,-0.0319,-0.0328,-0.0337,-0.035,-0.0347,-0.0359,-0.0355,-0.0354,-0.0364,-0.0364,-0.0358,-0.0367,-0.0371,-0.036,-0.038,-0.0379,-0.0345,-0.034,-0.0336,-0.0303,-0.0387,0,0,0,0,0,-0.0273,-0.0286,-0.0313,-0.0313,-0.0321,-0.0336,-0.0341,-0.0348,-0.0351,-0.0349,-0.0351,-0.0354,-0.0356,-0.0353,-0.0357,-0.0348,-0.0339,-0.0346,-0.0341,-0.0338,-0.0313,-0.0286,-0.0277,-0.038,-0.038,-0.038,0,0,-0.0259,-0.0279,-0.0286,-0.0308,-0.0315,-0.0302,-0.0337,-0.0341,-0.0317,-0.0352,-0.0317,-0.0343,-0.0353,-0.0339,-0.0337,-0.0343,-0.0306,-0.0336,-0.0333,-0.0309,-0.0284,-0.0274,-0.0265,-0.0379,-0.0379,-0.0379,0,0,-0.0217,-0.0255,-0.0244,-0.0251,-0.0269,-0.0282,-0.0285,-0.0298,-0.0292,-0.0278,-0.0295,-0.0305,-0.0308,-0.0303,-0.0305,-0.0281,-0.029,-0.0298,-0.0242,-0.0218,-0.0208,-0.02,-0.0183,-0.0174,-0.029,-0.029,-0.029,0,-0.0194,-0.0185,-0.0237,-0.0218,-0.0215,-0.0268,-0.0238,-0.024,-0.0243,-0.0224,-0.0258,-0.0252,-0.0282,-0.0245,-0.0249,-0.0269,-0.026,-0.026,-0.021,-0.0202,-0.0194,-0.0179,-0.0169,-0.0287,-0.0287,-0.0288,-0.0288,0,-0.0137,-0.0128,-0.0119,-0.0116,-0.0122,-0.011,-0.0129,-0.0123,-0.0142,-0.014,-0.0121,-0.016,-0.0152,-0.018,-0.0213,-0.0175,-0.0189,-0.0213,-0.0218,-0.018,-0.0167,-0.0158,-0.0284,-0.0285,-0.0285,-0.0286,0,0,-0.008,-0.0079,-0.0071,-0.0047,-0.007,-0.0061,-0.0034,-0.0014,0.0027,-0.0003,0.006,0.0008,-0.0027,-0.0031,-0.008,-0.0076,-0.0047,-0.0124,-0.0124,-0.0099,0.0008,-0.0028,-0.0021,-0.0062,-0.006,-0.0058,-0.0008,0,-0.0009,0.0048,0.0025,0.0089,0.0113,0.0076,0.0112,0.012,0.0117,0.0162,0.0119,0.0147,0.0037,0.0035,0.0018,-0.0022,-0.0018,-0.0058,-0.0039,-0.0038,-0.0067,-0.001,-0.0003,0.0041,0.0001,0.0003,0.0004,0,0.0063,0.0089,0.0156,0.0195,0.0204,0.0229,0.027,0.03,0.0331,0.0336,0.0339,0.0306,0.0301,0.0202,0.0166,0.0145,0.0082,0.0041,0.0042,0.0006,-0.0055,-0.0003,0.006,-0.0099,0.0018,0.0017,0.0016,0,0.013,0.0187,0.0241,0.0252,0.028,0.0311,0.0329,0.0355,0.0414,0.0457,0.051,0.0477,0.0486,0.041,0.0285,0.0237,0.0258,0.0185,0.0103,0.0099,0.011,0.0104,0.0034,0.0181,0.0181,0.0181,0.0181,0,0.0207,0.0257,0.0278,0.0309,0.0396,0.0382,0.0477,0.0498,0.056,0.0674,0.0607,0.0694,0.0537,0.0515,0.0378,0.0282,0.0332,0.014,0.0123,0.0123,0.0118,-0.0018,-0.0126,0.0183,0.0182,0.0182,0.0181,0,0.0272,0.0283,0.0356,0.0401,0.0428,0.0488,0.0577,0.0656,0.0694,0.0846,0.0876,0.0877,0.0852,0.0698,0.059,0.042,0.0229,0.0274,0.0276,0.0256,-0.0009,-0.0114,-0.0197,-0.0273,0.0193,0.0192,0.0192,0,0.0311,0.0351,0.0429,0.0491,0.0516,0.0601,0.0676,0.0724,0.0827,0.0982,0.1084,0.1094,0.1151,0.0964,0.0678,0.0465,0.0275,0.0286,0.0179,0.0004,-0.0126,-0.0214,-0.0279,0.0212,0.0211,0.0211,0.0211,0,0.0392,0.0409,0.047,0.0592,0.0679,0.0792,0.0905,0.1005,0.1106,0.1254,0.1441,0.1502,0.1319,0.1106,0.076,0.0581,0.0155,0.0274,0.0111,-0.0094,-0.0207,-0.0296,0.0137,0.021,0.021,0.021,0.021,0.021,0.0455,0.0513,0.0591,0.0713,0.0826,0.0978,0.1091,0.1242,0.1441,0.168,0.1707,0.185,0.1482,0.1023,0.0732,0.018,0.0159,-0.0003,-0.0106,-0.0171,-0.0278,0.0141,0.0172,0.0172,0.0172,0.0172,0.0172,0,0.0539,0.0603,0.0717,0.0861,0.1002,0.1041,0.1251,0.1387,0.165,0.1874,0.2046,0.1974,0.1518,0.1011,0.0265,-0.0128,-0.0285,-0.0339,-0.0457,-0.0499,-0.0091,-0.0127,-0.018,-0.018,-0.018,-0.018,-0.018,-0.0179,0.0591,0.07,0.0754,0.0988,0.1099,0.1293,0.142,0.1646,0.1839,0.2134,0.2248,0.2297,0.1922,0.0601,-0.0274,-0.0471,-0.0755,-0.082,-0.0952,-0.0685,-0.0662,-0.0639,-0.0698,-0.087,-0.0871,-0.1307,-0.1311,-0.1315]}],[{"header":{"parameterUnit":"m.s-1","parameterCategory":2,"la1":30.2991,"la2":30.254,"lo1":-89.0895,"lo2":-89.0444,"dy":0.0017,"dx":0.0017,"nx":28,"ny":28,"refTime":"2024-12-17T09:00:00:Z","depth":"2","parameterNumber":2,"parameterNumberName":"U-component_of_CURRENTS"},"data":[0,0,0,0,0,0,0,0,0,0,0,0,0,0,0,0,0,0,0,0,0,0,0,0,0,0,0,0,0,0,0,0,0,0,0,0,0,0,0,0,0,0,0,0,0,0,0,0,0,0,0,0,0,0,0,0,0,0,0.3001,0.3002,0,0.3075,0.3075,0.3076,0.3101,0.3101,0.3101,0.3101,0.3087,0.3087,0.3086,0,0,0,0,0,0,0,0,0,0,0,0,0,0.2942,0.2942,0.3,0.3002,0.3003,0.3075,0.3075,0.3076,0.3101,0.3101,0.3101,0.3102,0.3087,0.3087,0.3086,0,0,0,0,0,0,0,0,0,0,0,0,0,0.2981,0.2942,0.3,0.3029,0.3032,0.3075,0.3075,0.3076,0.3101,0.3101,0.3101,0.3102,0.3088,0.3087,0.3086,0.3074,0,0,0.3083,0.3083,0,0,0,0,0,0,0,0,0.2979,0.2983,0.3023,0.3027,0.3031,0.3084,0.305,0.3073,0.3101,0.3069,0.3101,0.3102,0.3081,0.3081,0.3088,0.3074,0.3073,0.3083,0.3083,0.3082,0.3082,0,0,0,0,0,0,0,0.2976,0.298,0.3024,0.3025,0.303,0.3059,0.3064,0.3055,0.3066,0.3072,0.3075,0.3092,0.3082,0.3088,0.3087,0.3073,0.3083,0.3083,0.3082,0.3082,0.3132,0.3134,0,0,0,0,0,0,0.2975,0.2977,0.3022,0.3027,0.3012,0.306,0.3065,0.3062,0.3069,0.3072,0.3092,0.3093,0.309,0.3088,0.3087,0.3121,0.3082,0.3082,0.3081,0.313,0.3133,0.3135,0,0,0,0,0,0,0.2973,0.2977,0.3019,0.301,0.3018,0.3061,0.3057,0.3063,0.3063,0.3086,0.3087,0.3085,0.309,0.3088,0.3087,0.3119,0.3081,0.308,0.3128,0.3131,0.3134,0.3159,0,0,0,0,0,0,0.297,0.2975,0.2988,0.3009,0.3019,0.3036,0.3058,0.3065,0.3076,0.3078,0.308,0.308,0.309,0.3088,0.3086,0.3117,0.308,0.3126,0.3129,0.3133,0.3156,0.3162,0.3168,0,0,0,0,0,0.2967,0.2971,0.2987,0.2994,0.3028,0.3036,0.3042,0.3072,0.3075,0.3071,0.3085,0.3079,0.3111,0.3088,0.3085,0.3117,0.3124,0.3128,0.3132,0.3153,0.3161,0.3167,0,0,0,0,0,0,0.2952,0.2975,0.2993,0.3004,0.302,0.3042,0.306,0.3062,0.3069,0.3088,0.308,0.3081,0.3111,0.3101,0.3077,0.3147,0.3125,0.3129,0.3142,0.3149,0.3155,0.3171,0.3079,0,0,0,0,0,0.2956,0.2966,0.2986,0.3,0.3007,0.3028,0.3041,0.3064,0.3073,0.3077,0.3099,0.3119,0.3128,0.3124,0.3153,0.3155,0.3171,0.3184,0.319,0.3195,0.3209,0.3263,0.3275,0.3148,0.3148,0.3148,0,0,0.2951,0.2974,0.2977,0.2999,0.3019,0.303,0.3034,0.3063,0.3081,0.3074,0.3122,0.3145,0.3138,0.3176,0.3187,0.3163,0.3237,0.32,0.3204,0.3216,0.3269,0.3281,0.3292,0.3151,0.3151,0.315,0,0,0.2951,0.2967,0.2978,0.2994,0.3039,0.3047,0.3045,0.3087,0.3112,0.3144,0.3166,0.32,0.3213,0.3234,0.3228,0.3274,0.3281,0.3291,0.3312,0.3364,0.3375,0.3384,0.3406,0.3418,0.3277,0.3277,0.3277,0,0.2957,0.2964,0.2981,0.3004,0.3025,0.3042,0.3056,0.3077,0.3127,0.3167,0.3169,0.3249,0.3243,0.3266,0.3294,0.3287,0.3312,0.3276,0.3371,0.3381,0.339,0.341,0.3423,0.3279,0.3279,0.3279,0.3278,0,0.2963,0.2978,0.2984,0.3014,0.3034,0.305,0.3084,0.3136,0.3171,0.3211,0.3287,0.33,0.3345,0.3351,0.3324,0.3393,0.3388,0.3383,0.3347,0.3404,0.3422,0.3434,0.3281,0.3281,0.328,0.328,0,0,0.2932,0.2978,0.298,0.2995,0.3045,0.3052,0.3112,0.3161,0.3202,0.3281,0.3338,0.3373,0.3417,0.3417,0.3413,0.3442,0.3513,0.3439,0.3441,0.3451,0.362,0.3547,0.3553,0.353,0.3532,0.3535,0.36,0,0.2926,0.2958,0.299,0.3006,0.3012,0.3075,0.3114,0.3186,0.3244,0.3319,0.3369,0.3419,0.3422,0.3445,0.3486,0.3516,0.3551,0.3496,0.3573,0.3575,0.3495,0.3567,0.328,0.3309,0.3612,0.3614,0.3615,0,0.2907,0.2932,0.2955,0.3002,0.3013,0.3038,0.3124,0.317,0.3285,0.3351,0.3441,0.3476,0.3545,0.3528,0.3628,0.3598,0.3623,0.3636,0.3639,0.3575,0.3526,0.3306,0.332,0.3636,0.3634,0.3633,0.3631,0,0.2849,0.2894,0.2909,0.2926,0.2992,0.3038,0.3083,0.3195,0.326,0.3379,0.3448,0.3534,0.3595,0.3648,0.3698,0.3673,0.3801,0.3761,0.3719,0.3712,0.3484,0.3454,0.3842,0.3842,0.3842,0.3842,0.3842,0,0.281,0.2811,0.2885,0.2889,0.2931,0.3,0.306,0.3153,0.3276,0.3351,0.3458,0.3524,0.3638,0.3717,0.3734,0.3777,0.3841,0.3745,0.3738,0.3484,0.3454,0.375,0.3738,0.3844,0.3844,0.3843,0.3843,0,0.2733,0.2777,0.2791,0.2867,0.2901,0.2936,0.3055,0.3097,0.324,0.3345,0.3391,0.3562,0.3664,0.375,0.3844,0.3826,0.3856,0.3853,0.3538,0.3493,0.3715,0.3704,0.3796,0.3795,0.3793,0.3792,0.3791,0,0.2687,0.269,0.2769,0.2789,0.2824,0.2887,0.2932,0.3078,0.3138,0.3344,0.3388,0.3548,0.3624,0.3753,0.3748,0.3776,0.3856,0.3521,0.3416,0.3734,0.3718,0.3709,0.37,0.3114,0.3108,0.3102,0.3098,0,0.2599,0.2638,0.2665,0.2716,0.2758,0.2798,0.288,0.2922,0.3085,0.3181,0.3305,0.3384,0.3535,0.3448,0.3524,0.3491,0.3488,0.3414,0.3847,0.3177,0.3098,0.308,0.3092,0.3051,0.3056,0.3059,0.3062,0.3064,0.2545,0.2544,0.2592,0.2629,0.2671,0.2685,0.2672,0.2757,0.2829,0.2935,0.3105,0.3138,0.3219,0.3175,0.3094,0.3035,0.3269,0.3114,0.3127,0.3147,0.3063,0.2986,0.2902,0.2905,0.2908,0.2911,0.2914,0,0.2456,0.2474,0.2496,0.2521,0.2501,0.2582,0.2612,0.2563,0.2566,0.2707,0.2791,0.2618,0.2595,0.2669,0.251,0.2524,0.2464,0.2417,0.2309,0.236,0.2405,0.2278,0.1911,0.1907,0.1904,0.1901,0,0,0.242,0.2395,0.2399,0.234,0.2358,0.2289,0.2272,0.2237,0.2278,0.2253,0.2266,0.2492,0.2603,0.2222,0.2186,0.2017,0.2161,0.1935,0.2749,0.2674,0.2713,0.2829,0.2697,0,0,0,0,0]},{"header":{"parameterUnit":"m.s-1","parameterCategory":2,"la1":30.2991,"la2":30.254,"lo1":-89.0895,"lo2":-89.0444,"dy":0.0017,"dx":0.0017,"nx":28,"ny":28,"refTime":"2024-12-17T09:00:00:Z","depth":"2","parameterNumber":3,"parameterNumberName":"V-component_of_CURRENTS"},"data":[0,0,0,0,0,0,0,0,0,0,0,0,0,0,0,0,0,0,0,0,0,0,0,0,0,0,0,0,0,0,0,0,0,0,0,0,0,0,0,0,0,0,0,0,0,0,0,0,0,0,0,0,0,0,0,0,0,0,0.0221,0.0221,0,0.0171,0.017,0.0169,0.013,0.013,0.013,0.0129,0.0091,0.009,0.0089,0,0,0,0,0,0,0,0,0,0,0,0,0,0.0217,0.0218,0.0221,0.0221,0.022,0.0171,0.017,0.0169,0.013,0.013,0.013,0.0129,0.0091,0.009,0.0089,0,0,0,0,0,0,0,0,0,0,0,0,0,0.0196,0.0218,0.0221,0.0197,0.0194,0.0171,0.017,0.0169,0.013,0.013,0.0129,0.0129,0.0091,0.009,0.0089,0.0086,0,0,0.0085,0.0084,0,0,0,0,0,0,0,0,0.0197,0.0196,0.0201,0.0198,0.0195,0.0158,0.0154,0.0143,0.013,0.0152,0.0129,0.0129,0.0116,0.0113,0.0101,0.0084,0.0083,0.0085,0.0084,0.0083,0.0083,0,0,0,0,0,0,0,0.0199,0.0198,0.0199,0.02,0.0197,0.0165,0.0162,0.0151,0.0135,0.015,0.0148,0.0146,0.0114,0.0102,0.0099,0.0082,0.0085,0.0084,0.0083,0.0082,0.0055,0.0055,0,0,0,0,0,0,0.0214,0.02,0.0201,0.0198,0.0198,0.0166,0.0163,0.0169,0.0134,0.0129,0.0146,0.0144,0.0104,0.0101,0.0098,0.0108,0.0083,0.0082,0.0082,0.0055,0.0055,0.0055,0,0,0,0,0,0,0.0214,0.0215,0.0203,0.0198,0.0195,0.0167,0.0174,0.0168,0.0161,0.0132,0.0126,0.0146,0.0104,0.01,0.0098,0.0106,0.0082,0.0081,0.0055,0.0055,0.0055,0.0119,0,0,0,0,0,0,0.0214,0.0215,0.0223,0.02,0.0196,0.0204,0.0174,0.0167,0.0161,0.0158,0.013,0.0125,0.0103,0.01,0.0096,0.0104,0.008,0.0055,0.0055,0.0055,0.0117,0.0121,0.0125,0,0,0,0,0,0.0214,0.0233,0.0224,0.0224,0.0209,0.0205,0.02,0.0177,0.0161,0.0167,0.0146,0.0127,0.0097,0.0099,0.0095,0.0102,0.0055,0.0055,0.0055,0.0115,0.012,0.0125,0,0,0,0,0,0,0.0237,0.023,0.022,0.0236,0.0227,0.0199,0.0201,0.0184,0.017,0.0164,0.0135,0.013,0.0126,0.0106,0.0109,0.0092,0.0069,0.0069,0.0117,0.0121,0.0126,0.0141,0.0078,0,0,0,0,0,0.0247,0.0254,0.0244,0.0253,0.0254,0.0228,0.0222,0.0206,0.019,0.0183,0.016,0.0136,0.0121,0.0117,0.0097,0.0097,0.0071,0.0095,0.0099,0.0103,0.0111,0.008,0.0083,0.0055,0.0055,0.0055,0,0,0.0257,0.0253,0.0257,0.0258,0.0246,0.0257,0.0224,0.0221,0.0226,0.0182,0.018,0.0151,0.0124,0.0119,0.0115,0.0106,0.0096,0.0103,0.0107,0.0112,0.008,0.0083,0.0086,0.0055,0.0055,0.0055,0,0,0.0284,0.0281,0.0298,0.0299,0.0291,0.0277,0.0283,0.026,0.0249,0.0243,0.021,0.019,0.0167,0.0148,0.0137,0.0153,0.0116,0.0141,0.018,0.0151,0.0153,0.0155,0.0125,0.0123,0.0146,0.0146,0.0146,0,0.0295,0.032,0.0302,0.0322,0.0328,0.0295,0.0318,0.0304,0.028,0.0277,0.0252,0.0209,0.0181,0.0182,0.0181,0.0164,0.014,0.0168,0.0158,0.0159,0.016,0.0128,0.0126,0.0149,0.0149,0.0149,0.0149,0,0.0339,0.0359,0.0372,0.0386,0.0388,0.0402,0.0387,0.0381,0.0357,0.0339,0.0323,0.0277,0.0255,0.0236,0.0214,0.0208,0.0187,0.0166,0.015,0.0167,0.0132,0.0128,0.0154,0.0153,0.0152,0.0151,0,0,0.0364,0.0397,0.0401,0.0427,0.0425,0.0436,0.0443,0.0448,0.0465,0.0415,0.0426,0.0377,0.0343,0.0327,0.0288,0.0258,0.0235,0.0219,0.0216,0.0199,0.0169,0.0147,0.014,0.0213,0.0213,0.0213,0.0143,0,0.0405,0.0463,0.0461,0.0513,0.0546,0.0523,0.0542,0.0534,0.0516,0.0516,0.0455,0.0447,0.0382,0.0374,0.0332,0.0264,0.0228,0.0255,0.0148,0.0145,0.013,0.0136,0.0157,0.0096,0.0139,0.0139,0.0138,0,0.0452,0.0487,0.0546,0.0594,0.0606,0.0626,0.0652,0.0668,0.0653,0.0637,0.0604,0.0553,0.0504,0.0443,0.033,0.0352,0.0267,0.0203,0.0198,0.0154,0.0116,0.0085,0.0087,0.0132,0.0132,0.0133,0.0133,0,0.0489,0.0549,0.06,0.0616,0.0659,0.0678,0.07,0.0703,0.0738,0.0717,0.0729,0.0648,0.0624,0.0502,0.0359,0.0347,0.0231,0.0197,0.0093,0.0091,0.0076,0.0072,0.0113,0.0113,0.0113,0.0113,0.0113,0,0.0539,0.0583,0.0626,0.0657,0.0731,0.0736,0.0809,0.0813,0.0839,0.0894,0.0802,0.0815,0.0638,0.0545,0.0395,0.0239,0.0255,0.0103,0.0073,0.0097,0.0097,0.0101,0.0101,0.0111,0.0111,0.0112,0.0112,0,0.0576,0.06,0.0671,0.0727,0.0753,0.0808,0.0895,0.0952,0.0959,0.1024,0.1022,0.0948,0.0829,0.064,0.0451,0.0305,0.0144,0.0081,0.012,0.0095,0.0012,0.0015,-0.004,-0.0042,-0.0043,-0.0044,-0.0044,0,0.0603,0.0643,0.0726,0.0778,0.0807,0.0894,0.0963,0.1007,0.1077,0.1112,0.1152,0.1056,0.1006,0.0715,0.0443,0.018,0.0144,0.0019,-0.0008,0.0021,-0.0003,0.0002,0.0007,-0.0007,-0.0007,-0.0007,-0.0008,0,0.0658,0.0681,0.0739,0.0846,0.0925,0.1031,0.113,0.1204,0.1266,0.1313,0.1356,0.1316,0.1048,0.0789,0.0426,0.0241,0.0059,0.0003,0.0028,0.0032,0.0047,0.0026,0.003,-0.0011,-0.001,-0.001,-0.001,-0.001,0.0695,0.0745,0.0819,0.0923,0.1021,0.1148,0.1245,0.1351,0.1468,0.1546,0.1507,0.1453,0.1156,0.0697,0.0378,0.0038,0.0055,-0.0072,-0.0069,-0.0066,-0.0046,-0.0034,-0.0103,-0.0104,-0.0104,-0.0104,-0.0104,0,0.0743,0.0801,0.0896,0.1017,0.1129,0.1178,0.1346,0.1437,0.1576,0.1641,0.1669,0.1379,0.1088,0.0742,0.0248,-0.0047,-0.0072,-0.015,-0.011,-0.0105,-0.0101,-0.0082,-0.0149,-0.015,-0.0151,-0.0152,0,0,0.0769,0.0857,0.0905,0.1083,0.1175,0.1333,0.1433,0.1559,0.1642,0.1701,0.1677,0.1614,0.1196,0.083,0.0427,0.0142,0.0084,0.0077,0.0145,0.0246,0.0254,-0.0025,0.0013,0,0,0,0,0]}],[{"header":{"parameterUnit":"m.s-1","parameterCategory":2,"la1":30.2991,"la2":30.254,"lo1":-89.0895,"lo2":-89.0444,"dy":0.0017,"dx":0.0017,"nx":28,"ny":28,"refTime":"2024-12-17T09:00:00:Z","depth":"4","parameterNumber":2,"parameterNumberName":"U-component_of_CURRENTS"},"data":[0,0,0,0,0,0,0,0,0,0,0,0,0,0,0,0,0,0,0,0,0,0,0,0,0,0,0,0,0,0,0,0,0,0,0,0,0,0,0,0,0,0,0,0,0,0,0,0,0,0,0,0,0,0,0,0,0,0,0.1669,0.167,0,0.175,0.1751,0.1752,0.1808,0.1809,0.1809,0.181,0.1915,0.1917,0.1919,0,0,0,0,0,0,0,0,0,0,0,0,0,0.1576,0.1577,0.1669,0.167,0.1671,0.175,0.1751,0.1752,0.1808,0.1809,0.1809,0.181,0.1914,0.1917,0.1919,0,0,0,0,0,0,0,0,0,0,0,0,0,0.1631,0.1578,0.1668,0.171,0.1715,0.175,0.1751,0.1752,0.1808,0.1809,0.181,0.181,0.1913,0.1916,0.192,0.1921,0,0,0.193,0.1931,0,0,0,0,0,0,0,0,0.1628,0.1634,0.1703,0.1707,0.1713,0.1772,0.1757,0.1811,0.1807,0.177,0.181,0.1811,0.187,0.1877,0.1887,0.1926,0.1931,0.193,0.1932,0.1934,0.1935,0,0,0,0,0,0,0,0.1624,0.1631,0.1699,0.1704,0.171,0.173,0.1738,0.1767,0.1812,0.1773,0.1778,0.1791,0.1873,0.1883,0.189,0.1932,0.193,0.1933,0.1935,0.1936,0.2087,0.2089,0,0,0,0,0,0,0.1616,0.1627,0.1696,0.1701,0.1674,0.1731,0.174,0.175,0.1812,0.1823,0.179,0.1793,0.1877,0.1886,0.1894,0.1993,0.1934,0.1937,0.1939,0.2085,0.2088,0.209,0,0,0,0,0,0,0.1614,0.1621,0.1693,0.1668,0.1679,0.1732,0.1742,0.1751,0.18,0.1824,0.1835,0.1834,0.1878,0.1889,0.1959,0.1994,0.1938,0.1941,0.2083,0.2086,0.2089,0.2132,0,0,0,0,0,0,0.1611,0.162,0.1648,0.1667,0.168,0.1731,0.1742,0.1752,0.1805,0.1811,0.1865,0.1873,0.188,0.1954,0.1962,0.1998,0.1944,0.208,0.2084,0.2088,0.2128,0.2136,0.2143,0,0,0,0,0,0.1607,0.1625,0.1649,0.1659,0.1709,0.1732,0.174,0.1779,0.1806,0.1827,0.1877,0.1874,0.1984,0.1959,0.1968,0.2005,0.2079,0.2083,0.2088,0.2125,0.2135,0.2143,0,0,0,0,0,0,0.1608,0.1634,0.166,0.169,0.1722,0.1743,0.1771,0.1801,0.1856,0.1873,0.1901,0.1913,0.1988,0.1994,0.1965,0.2061,0.203,0.2037,0.2055,0.2065,0.2072,0.2066,0.1947,0,0,0,0,0,0.162,0.164,0.1669,0.1701,0.1714,0.1753,0.1779,0.1803,0.1843,0.1869,0.1918,0.1965,0.2006,0.2035,0.207,0.2123,0.2133,0.2153,0.2161,0.2167,0.217,0.2229,0.2242,0.2105,0.2105,0.2105,0,0,0.1627,0.165,0.1662,0.1703,0.173,0.1758,0.1771,0.1809,0.1851,0.1871,0.1962,0.1999,0.2028,0.2089,0.2122,0.2103,0.2212,0.2173,0.2178,0.2178,0.2235,0.2248,0.226,0.2108,0.2107,0.2107,0,0,0.1638,0.1673,0.169,0.1717,0.1764,0.1784,0.1804,0.1852,0.1894,0.1973,0.1999,0.2061,0.2136,0.2158,0.2176,0.2248,0.2252,0.2267,0.2299,0.2356,0.2367,0.2378,0.2402,0.2414,0.2267,0.2267,0.2267,0,0.1656,0.1681,0.1702,0.173,0.1761,0.1799,0.183,0.1871,0.1948,0.1994,0.2012,0.2142,0.2164,0.2229,0.2252,0.2264,0.2292,0.2258,0.2365,0.2375,0.2385,0.2407,0.242,0.227,0.227,0.2269,0.2269,0,0.1669,0.1707,0.1719,0.1768,0.1804,0.1832,0.1882,0.1945,0.2009,0.2058,0.2164,0.2204,0.2283,0.2296,0.2296,0.2376,0.2372,0.2369,0.2337,0.2401,0.2421,0.2433,0.2274,0.2273,0.2272,0.2271,0,0,0.1659,0.1717,0.1729,0.1758,0.1826,0.1848,0.1928,0.2004,0.2071,0.2157,0.2248,0.2316,0.2357,0.238,0.2395,0.2432,0.2514,0.2434,0.2435,0.2448,0.2634,0.2466,0.2463,0.2541,0.2544,0.2546,0.2617,0,0.1671,0.1718,0.1754,0.1813,0.1835,0.1903,0.1971,0.2052,0.2137,0.2236,0.2294,0.2384,0.2382,0.2429,0.2473,0.2511,0.2551,0.2494,0.2578,0.258,0.2415,0.2473,0.2555,0.2626,0.2629,0.2631,0.2632,0,0.167,0.1704,0.1757,0.1831,0.1851,0.1907,0.2027,0.2095,0.2227,0.2298,0.2401,0.2457,0.254,0.2524,0.263,0.2602,0.2628,0.2641,0.2645,0.2479,0.2434,0.2552,0.2655,0.2653,0.2651,0.265,0.2648,0,0.1628,0.1704,0.1748,0.1774,0.1866,0.1929,0.1999,0.2129,0.2202,0.2352,0.2427,0.2534,0.2606,0.2664,0.2712,0.2691,0.2809,0.2782,0.265,0.2638,0.2748,0.2736,0.2856,0.2856,0.2856,0.2855,0.2855,0,0.1601,0.1638,0.174,0.1759,0.1835,0.1917,0.2022,0.2115,0.2252,0.2334,0.2463,0.2533,0.2653,0.2733,0.2751,0.2738,0.2855,0.266,0.265,0.2763,0.2753,0.2756,0.2743,0.2858,0.2857,0.2857,0.2856,0,0.1532,0.1597,0.1652,0.1767,0.1813,0.1875,0.2025,0.2091,0.224,0.2355,0.2408,0.2571,0.2665,0.2753,0.2844,0.2773,0.2781,0.275,0.2865,0.2861,0.2557,0.2547,0.2592,0.2586,0.2582,0.2578,0.2575,0,0.1493,0.1514,0.1647,0.1691,0.1752,0.1856,0.192,0.2074,0.2139,0.2349,0.2382,0.2542,0.2628,0.2627,0.2724,0.2749,0.2721,0.2699,0.2613,0.2546,0.2534,0.253,0.2525,0.2568,0.2567,0.2566,0.2565,0,0.142,0.1486,0.1534,0.1626,0.1706,0.1772,0.1879,0.1912,0.2079,0.2233,0.2306,0.2364,0.2463,0.2521,0.257,0.258,0.2692,0.2651,0.2659,0.2578,0.2518,0.2509,0.251,0.2549,0.2552,0.2553,0.2554,0,0.1379,0.1396,0.1475,0.1542,0.163,0.1659,0.1729,0.1798,0.188,0.2101,0.2119,0.2289,0.2437,0.2436,0.2478,0.2478,0.2429,0.2334,0.2358,0.2376,0.2271,0.2161,0.2078,0,0,0,0,0,0.1329,0.133,0.1382,0.1439,0.1516,0.1568,0.1681,0.175,0.1909,0.1908,0.2008,0.2089,0.2157,0.2244,0.22,0.2374,0.2435,0.231,0.2336,0.2464,0.2482,0.2378,0,0,0,0,0,0,0.1291,0.1333,0.1341,0.1334,0.1353,0.1417,0.1484,0.1592,0.1596,0.1772,0.1824,0.1958,0.2059,0.2167,0.2162,0.2186,0.2156,0.2416,0.241,0.2454,0.247,0.2484,0.2384,0,0,0,0,0]},{"header":{"parameterUnit":"m.s-1","parameterCategory":2,"la1":30.2991,"la2":30.254,"lo1":-89.0895,"lo2":-89.0444,"dy":0.0017,"dx":0.0017,"nx":28,"ny":28,"refTime":"2024-12-17T09:00:00:Z","depth":"4","parameterNumber":3,"parameterNumberName":"V-component_of_CURRENTS"},"data":[0,0,0,0,0,0,0,0,0,0,0,0,0,0,0,0,0,0,0,0,0,0,0,0,0,0,0,0,0,0,0,0,0,0,0,0,0,0,0,0,0,0,0,0,0,0,0,0,0,0,0,0,0,0,0,0,0,0,0.0236,0.0236,0,0.021,0.021,0.0209,0.0189,0.0189,0.0189,0.0189,0.0162,0.0161,0.0161,0,0,0,0,0,0,0,0,0,0,0,0,0,0.0223,0.0224,0.0236,0.0236,0.0236,0.021,0.021,0.0209,0.0189,0.0189,0.0189,0.0189,0.0162,0.0161,0.016,0,0,0,0,0,0,0,0,0,0,0,0,0,0.0215,0.0224,0.0237,0.0224,0.0223,0.0211,0.021,0.0209,0.0189,0.0189,0.0189,0.0189,0.0162,0.0161,0.016,0.0156,0,0,0.0157,0.0157,0,0,0,0,0,0,0,0,0.0215,0.0215,0.0226,0.0225,0.0224,0.0204,0.0195,0.0192,0.0189,0.02,0.0189,0.0189,0.0177,0.0175,0.0168,0.0154,0.0153,0.0157,0.0157,0.0156,0.0156,0,0,0,0,0,0,0,0.0216,0.0216,0.0224,0.0226,0.0224,0.0204,0.0203,0.0194,0.0188,0.0199,0.0198,0.0198,0.0176,0.0169,0.0167,0.0153,0.0157,0.0156,0.0156,0.0155,0.0136,0.0136,0,0,0,0,0,0,0.0225,0.0217,0.0225,0.0224,0.0221,0.0205,0.0204,0.0209,0.0188,0.0185,0.0198,0.0197,0.0171,0.0168,0.0166,0.0174,0.0156,0.0155,0.0155,0.0136,0.0136,0.0136,0,0,0,0,0,0,0.0225,0.0226,0.0226,0.022,0.0219,0.0206,0.0212,0.0209,0.0206,0.0187,0.0184,0.0199,0.017,0.0167,0.0166,0.0173,0.0155,0.0154,0.0136,0.0136,0.0136,0.0182,0,0,0,0,0,0,0.0225,0.0227,0.0234,0.0221,0.022,0.023,0.0212,0.0208,0.0207,0.0205,0.0188,0.0185,0.017,0.0168,0.0165,0.0171,0.0153,0.0136,0.0136,0.0136,0.018,0.0183,0.0186,0,0,0,0,0,0.0224,0.0239,0.0235,0.0236,0.0231,0.0231,0.0229,0.0217,0.0207,0.0213,0.0199,0.0186,0.0166,0.0167,0.0164,0.017,0.0136,0.0136,0.0136,0.0179,0.0183,0.0186,0,0,0,0,0,0,0.024,0.0238,0.0233,0.0248,0.0244,0.0228,0.0233,0.0222,0.0214,0.0213,0.0191,0.0188,0.0187,0.0172,0.0173,0.0163,0.0147,0.0147,0.018,0.0184,0.0187,0.0194,0.0152,0,0,0,0,0,0.0247,0.0255,0.025,0.0261,0.0263,0.0248,0.0246,0.0239,0.0229,0.0225,0.0212,0.0196,0.0184,0.018,0.0168,0.0167,0.0138,0.0166,0.0169,0.0172,0.0174,0.0136,0.0136,0.0137,0.0137,0.0137,0,0,0.0254,0.0255,0.0259,0.0264,0.0259,0.0268,0.0246,0.025,0.0255,0.0224,0.0228,0.0209,0.0186,0.0184,0.0181,0.0174,0.0156,0.0172,0.0175,0.0175,0.0136,0.0136,0.0136,0.0137,0.0137,0.0137,0,0,0.0274,0.0277,0.029,0.0293,0.0294,0.0286,0.0291,0.0281,0.0277,0.0277,0.0253,0.0239,0.0225,0.0207,0.0196,0.0207,0.0173,0.0203,0.0226,0.0189,0.0189,0.0188,0.0151,0.0147,0.0205,0.0205,0.0205,0,0.0281,0.0302,0.0294,0.031,0.0316,0.0298,0.0316,0.0309,0.0299,0.0298,0.0286,0.0254,0.0234,0.0223,0.0225,0.0215,0.0188,0.0216,0.0194,0.0192,0.0191,0.0153,0.0148,0.0207,0.0207,0.0207,0.0206,0,0.0312,0.033,0.034,0.0353,0.0358,0.0372,0.0365,0.0367,0.0355,0.0344,0.0333,0.03,0.0281,0.0268,0.0251,0.0234,0.0216,0.0203,0.0187,0.0194,0.0153,0.0147,0.021,0.0209,0.0209,0.0208,0,0,0.0325,0.0356,0.036,0.0381,0.0385,0.0396,0.0404,0.0408,0.042,0.0393,0.0395,0.036,0.0338,0.0323,0.0293,0.0258,0.0222,0.0231,0.0227,0.0198,0.0139,0.0125,0.0117,0.0205,0.0204,0.0204,0.0115,0,0.0352,0.0396,0.04,0.044,0.0463,0.0455,0.0469,0.0468,0.0458,0.0455,0.0408,0.0402,0.036,0.0355,0.0311,0.0248,0.0207,0.0247,0.0133,0.013,0.012,0.011,0.0201,0.011,0.0109,0.0108,0.0107,0,0.0382,0.0409,0.0455,0.0496,0.0506,0.0526,0.0548,0.0562,0.0547,0.0537,0.0508,0.0471,0.042,0.0384,0.0269,0.0298,0.0223,0.0166,0.0161,0.0128,0.0104,0.01,0.0095,0.0096,0.0096,0.0097,0.0098,0,0.04,0.0449,0.049,0.0504,0.0542,0.0564,0.0586,0.0588,0.0613,0.0593,0.0598,0.0524,0.0498,0.0392,0.0271,0.0271,0.0137,0.0122,0.0035,0.0032,0.0052,0.0054,0.0035,0.0035,0.0035,0.0035,0.0036,0,0.0426,0.0463,0.0509,0.0534,0.0595,0.0606,0.0664,0.0671,0.0686,0.0716,0.065,0.0642,0.0499,0.0406,0.0285,0.0141,0.0145,0.0034,0.0008,0.0073,0.0078,0.0047,0.005,0.0032,0.0033,0.0033,0.0034,0,0.0441,0.0468,0.0526,0.0582,0.0608,0.0655,0.0732,0.0771,0.0777,0.0809,0.0806,0.0731,0.0609,0.0454,0.0279,0.0171,0.0028,-0.0025,0.0056,0.0037,-0.0057,-0.0051,-0.0132,-0.0133,-0.0134,-0.0135,-0.0135,0,0.0453,0.0484,0.0567,0.0611,0.0643,0.0718,0.0774,0.0814,0.0856,0.0861,0.0874,0.0776,0.07,0.0448,0.0277,0.0038,0.0002,-0.0078,-0.0074,-0.0057,-0.0075,-0.0067,-0.006,-0.0137,-0.0137,-0.0138,-0.0138,0,0.0476,0.0507,0.0555,0.0649,0.0719,0.0803,0.0881,0.0918,0.0958,0.0962,0.0927,0.0795,0.0655,0.0452,0.0265,0.0093,-0.003,-0.009,-0.0089,-0.0086,-0.0065,-0.008,-0.0072,-0.0142,-0.0141,-0.0141,-0.0141,0,0.0493,0.0531,0.0598,0.068,0.0772,0.0857,0.0901,0.0949,0.0991,0.099,0.0974,0.0822,0.0736,0.0481,0.0309,0.0137,0.0089,0.0026,0.002,0.0022,0.0088,0.0138,0.0099,0,0,0,0,0,0.0506,0.0548,0.0625,0.0714,0.0807,0.0864,0.0959,0.0994,0.103,0.1012,0.0996,0.0864,0.0611,0.0508,0.0333,0.0276,0.0051,0.0063,-0.0027,-0.0162,-0.0158,-0.0108,0,0,0,0,0,0,0.0512,0.058,0.062,0.073,0.0795,0.0902,0.0965,0.0993,0.0986,0.099,0.0866,0.0803,0.0566,0.0707,0.0323,0.0272,0.0186,-0.005,-0.0055,-0.0165,-0.0161,-0.0157,-0.0104,0,0,0,0,0]}]]